Flag for United Kingdom Weather past 2 weeks in Glasgow, Scotland, United Kingdom

Now
57 °F

Light rain. Overcast.


Feels Like: 57 °F
Forecast: 50 / 56 °F
Wind: 5 mph from East

Location: Glasgow Airport

Current Time: Sep 30, 2014 at 7:08:56 AM

Latest Report: Sep 30, 2014 at 6:20 AM


Visibility: N/A

Pressure: 30.04 "Hg

Humidity: 88%

Dew point: 54 °F

Location of GlasgowLocation

Historic Weather in Glasgow — Graph

°F

Glasgow temperature yesterday

Maximum temperature yesterday: 66 °F (at 2:20 PM)
Minimum temperature yesterday: 54 °F (at 10:50 PM)
Average temperature yesterday: 59 °F

Past Weeks' High & Low Weather Summary

 TemperatureHumidityPressure
High66 °F (Sep 18, 2:50 PM)100% (Sep 16, 12:50 AM)30.33 "Hg (Sep 16, 12:50 AM)
Low36 °F (Sep 21, 6:50 AM)49% (Sep 21, 3:20 PM)29.80 "Hg (Sep 23, 11:20 PM)
Average57 °F86%30.05 "Hg
* Reported Sep 15 5:20 AM — Sep 30 5:50 AM, Glasgow, Weather by CustomWeather, © 2014

Note: Actual official high and low records may vary slightly from our data, if they occured in-between our weather recording intervals... More about our weather records

Advertising

Glasgow weather history for previous 24 hours

 ConditionsComfort  
Time TempWeatherWind HumidityBarometerVisibility
5:50 AM
Sep 30
57 °FPassing clouds.3 mph88%30.04 "HgN/A
5:20 AM55 °FPassing clouds.3 mph94%30.04 "HgN/A
4:50 AM57 °FPassing clouds.5 mph88%30.04 "HgN/A
4:20 AM55 °FPassing clouds.5 mph94%30.04 "HgN/A
3:50 AM54 °FPassing clouds.5 mph94%30.04 "HgN/A
3:20 AM55 °FPartly cloudy.5 mph94%30.04 "HgN/A
2:50 AM55 °FPartly cloudy.5 mph94%30.04 "HgN/A
2:20 AM57 °FOvercast.5 mph94%30.04 "HgN/A
1:50 AM57 °FMostly cloudy.5 mph94%30.04 "HgN/A
1:20 AM57 °FOvercast.3 mph94%30.04 "HgN/A
12:50 AM55 °FMostly cloudy.3 mph94%30.07 "Hg4 mi
12:20 AM55 °FPartly cloudy.3 mph94%30.07 "Hg5 mi
11:50 PM
Sep 29
55 °FPassing clouds.3 mph94%30.07 "Hg4 mi
11:20 PM55 °FClear.No wind100%30.07 "Hg4 mi
10:50 PM54 °FClear.3 mph100%30.07 "Hg4 mi
10:20 PM55 °FClear.3 mph94%30.07 "Hg5 mi
9:50 PM55 °FPassing clouds.No wind100%30.07 "HgN/A
9:20 PM55 °FPassing clouds.No wind100%30.07 "HgN/A
8:50 PM57 °FPassing clouds.No wind94%30.07 "HgN/A
8:20 PM59 °FPassing clouds.No wind88%30.07 "HgN/A
7:50 PM59 °FPassing clouds.2 mph88%30.07 "HgN/A
7:20 PM61 °FScattered clouds.2 mph83%30.07 "HgN/A
6:50 PM61 °FScattered clouds.3 mph83%30.07 "HgN/A
6:20 PM61 °FPartly sunny.6 mph88%30.07 "HgN/A
5:50 PM63 °FPassing clouds.5 mph83%30.07 "HgN/A
5:20 PM63 °FPassing clouds.7 mph83%30.07 "HgN/A
4:50 PM63 °FScattered clouds.9 mph83%30.07 "HgN/A
4:20 PM64 °FBroken clouds.10 mph78%30.07 "HgN/A
3:50 PM66 °FBroken clouds.8 mph68%30.07 "HgN/A
3:20 PM66 °FBroken clouds.7 mph68%30.07 "HgN/A
2:50 PM66 °FBroken clouds.8 mph68%30.07 "HgN/A
2:20 PM66 °FPartly sunny.6 mph73%30.07 "HgN/A
1:50 PM64 °FPartly sunny.7 mph78%30.09 "HgN/A
1:20 PM64 °FPartly sunny.7 mph78%30.09 "HgN/A
12:50 PM63 °FBroken clouds.8 mph83%30.09 "HgN/A
12:20 PM63 °FBroken clouds.8 mph83%30.09 "HgN/A
11:50 AM61 °FBroken clouds.7 mph88%30.09 "HgN/A
11:20 AM61 °FBroken clouds.8 mph88%30.09 "HgN/A
10:50 AM61 °FPartly sunny.No wind88%30.09 "HgN/A
10:20 AM59 °FPartly sunny.3 mph88%30.09 "HgN/A
9:50 AM57 °FPartly sunny.5 mph94%30.09 "HgN/A
9:20 AM57 °FPartly sunny.5 mph94%30.09 "HgN/A
8:50 AM57 °FPartly sunny.2 mph94%30.09 "HgN/A
8:20 AM57 °FPartly sunny.No wind88%30.09 "HgN/A
7:50 AM55 °FPassing clouds.3 mph94%30.09 "HgN/A
7:20 AM55 °FPassing clouds.3 mph94%30.09 "HgN/A
Weather by CustomWeather, © 2014

See weather overviewHow to use our weather pages